Regional Weather Roundup
Issued by NWS Midland/Odessa, TX

Home | Current Version | Previous Version | Text Only | Print | Product List | Glossary On
Versions: 1 2 3 4 5 6 7 8 9 10 11 12 13 14 15 16 17 18 19 20 21 22 23 24 25 26 27 28 29 30 31 32 33 34 35 36 37 38 39 40 41 42 43 44 45 46 47 48 49 50
000
ASUS44 KMAF 232210
RWRMAF
MIDLAND AREA WEATHER ROUNDUP
NATIONAL WEATHER SERVICE MIDLAND TX
400 PM CST FRI FEB 23 2018

...IN SOUTHWEST TEXAS AND SOUTHEAST NEW MEXICO...

CITY           SKY/WX    TMP DP  RH WIND       PRES   REMARKS
ALPINE         PTSUNNY   72  13  10 SW23      30.04F
ANDREWS        FAIR      65  33  29 S5        29.96F
ARTESIA        NOT AVBL
BIG SPRING       N/A     56  46  70 SE9       30.01
CARLSBAD       MOSUNNY   72  13  10 NW7       29.89F
DRYDEN           N/A     69  46  43 E12       29.94F
FORT STOCKTON  SUNNY     69  32  25 E9        29.95F
GUAD PASS      SUNNY     67  10  11 W26G37    29.99F
HOBBS          SUNNY     68  18  14 S10G18    29.94F
LAMESA         CLOUDY    55  43  62 SE8       29.98F
MARFA          SUNNY     67   7   9 SW22      30.02F
MIDLAND AIRPK    N/A     65  44  45 SE9       29.97F
MIDLAND INTL   SUNNY     65  40  39 SE6       29.96F
ODESSA         SUNNY     64  37  36 VRB5      29.96F
PECOS          SUNNY     70  32  24 E7        29.92F
PRESIDIO       FAIR      78  23  13 W8        29.95F
SEMINOLE       CLOUDY    69  30  23 S7        29.95F
SNYDER         CLOUDY    47  45  93 CALM      30.02F
WINK           CLOUDY    70  26  19 S3        29.91F
$$
...OTHER STATIONS IN TEXAS...

CITY           SKY/WX    TMP DP  RH WIND       PRES   REMARKS
ABILENE        CLOUDY    40  40 100 NE3       30.04F FOG
AMARILLO       CLOUDY    50  32  50 SE22      29.96F
AUSTIN         CLOUDY    63  63 100 E3        30.03F
BROWNSVILLE    FAIR      83  69  62 SE24G35   29.97F
CORPUS CHRISTI FAIR      79  67  66 SE25      29.99F
DALLAS FTW     CLOUDY    51  49  92 CALM      30.04F FOG
DEL RIO        CLOUDY    62  55  77 E8        29.98F
EL PASO        MOSUNNY   66  12  12 SW13G21   29.95F
HOUSTON INT    PTSUNNY   79  67  66 S17G23    30.06F
LUBBOCK        MOSUNNY   51  39  63 SE15      29.97F
SAN ANGELO     CLOUDY    52  46  80 CALM      30.02F
SAN ANTONIO    CLOUDY    70  65  84 SE9       30.01F
WACO           CLOUDY    54  52  93 E8        30.05F FOG
WICHITA FALLS  CLOUDY    34  32  92 NE9       30.19F WCI  27
$$
...OTHER LOCATIONS IN NEW MEXICO...

CITY           SKY/WX    TMP DP  RH WIND       PRES   REMARKS
ALAMOGORDO     NOT AVBL
ALBUQUERQUE    MOSUNNY   56  11  16 S18G30    29.85F
CANNON AFB     SUNNY     66   3   8 S17       29.91F
CLOVIS         SUNNY     68  13  12 SW15G24   29.90F
HOLLOMAN AFB   SUNNY     64  12  13 S20       29.96
ROSWELL        SUNNY     71   6   8 S29G41    29.85F
RUIDOSO        NOT AVBL
SANTA FE       SUNNY     50   9  19 SW12      29.86F
TRUTH OR CONSE SUNNY     62   7  11 S26G39    29.88F
TUCUMCARI      SUNNY     68  10  10 SW20G26   29.85F
$$




USA.gov is the U.S. government's official web portal to all federal, state and local government web resources and services.